User: anonymous   Login
Location: Unspecified
(0.0000°N, 0.0000°E)
Time: 00:04:40
(UTC+00:00)
Language:

SCATHA - Orbit

View from above orbital plane
View from above orbital plane
View from above satellite
View from above satellite

Ground track
Ground track

The orbit data is extracted from the following two-line orbital elements,

1 11256U 79007A   18111.89770604 -.00000210  00000-0  00000+0 0  9994
2 11256  16.4617 322.6597 1784314  35.7825 138.4040  1.01527015112044
Epoch (UTC): 21 April 2018 21:32:41
Eccentricity: 0.1784314
inclination: 16.4617°
perigee height: 27976 km
apogee height: 42899 km
right ascension of ascending node: 322.6597°
argument of perigee: 35.7825°
revolutions per day: 1.01527015
mean anomaly at epoch: 138.4040°
orbit number at epoch: 11204

The dashed part of the orbit path shows where the satellite is in the earth's shadow,  

DLR